Location: Waco, TX
(31.5480°N, 97.1670°W)
Time: 20:44:18
(UTC-05:00)

ISS - Pass Details

Date: 16 June 2018
Orbit: 402 x 406 km, 51.6° (Epoch: 18 June)

Event Time Altitude Azimuth Distance (km) Brightness Sun altitude
Rises 19:41:54 0° 304° (NW) 2,317 1.9 9.5°
Reaches altitude 10° 19:44:08 10° 293° (WNW) 1,454 3.6 9.1°
Maximum altitude 19:47:01 29° 231° (SW) 763 -2.0 8.5°
Drops below altitude 10° 19:49:53 10° 168° (SSE) 1,445 -1.3 7.9°
Sets 19:52:06 0° 157° (SSE) 2,299 -0.4 7.5°
